TimeAKST,TemperatureF,Dew PointF,Humidity,Sea Level PressureIn,VisibilityMPH,Wind Direction,Wind SpeedMPH,Gust SpeedMPH,PrecipitationIn,Events,Conditions,WindDirDegrees,DateUTC
12:53 AM,-0.0,-5.1,79,29.86,3.0,WSW,8.1,-,0.00,Snow,Light Snow,240,2012-01-12 09:53:00
1:53 AM,-0.9,-6.0,79,29.87,6.0,SW,3.5,-,0.00,Snow,Light Snow,220,2012-01-12 10:53:00
3:53 AM,-4.0,-9.9,76,29.89,4.0,Variable,3.5,-,0.00,Snow,Light Snow,0,2012-01-12 12:53:00
4:53 AM,-6.0,-11.0,79,29.90,7.0,Calm,Calm,-,0.00,Snow,Light Snow,0,2012-01-12 13:53:00
5:53 AM,-7.1,-11.9,79,29.92,7.0,SSW,4.6,-,0.00,Snow,Light Snow,210,2012-01-12 14:53:00
6:53 AM,-7.1,-11.9,79,29.93,8.0,Variable,3.5,-,0.00,Snow,Light Snow,0,2012-01-12 15:53:00
7:53 AM,-7.1,-11.9,79,29.95,7.0,WSW,5.8,-,0.00,Snow,Light Snow,240,2012-01-12 16:53:00
8:53 AM,-7.1,-14.1,72,29.96,7.0,SW,5.8,-,0.00,Snow,Light Snow,230,2012-01-12 17:53:00
9:53 AM,-8.0,-14.1,75,29.99,7.0,WSW,8.1,-,0.00,Snow,Light Snow,240,2012-01-12 18:53:00
10:53 AM,-8.0,-15.0,71,30.01,7.0,WSW,9.2,-,0.00,Snow,Light Snow,240,2012-01-12 19:53:00
11:53 AM,-9.0,-15.0,75,30.03,4.0,WSW,8.1,-,0.00,Snow,Light Snow,250,2012-01-12 20:53:00
12:53 PM,-9.0,-16.1,71,30.07,5.0,WSW,9.2,-,0.00,Snow,Light Snow,240,2012-01-12 21:53:00
1:53 PM,-9.0,-16.1,71,30.08,3.0,WSW,9.2,-,0.00,Snow,Light Snow,250,2012-01-12 22:53:00
2:12 PM,-9.4,-16.6,71,30.04,1.5,WSW,8.1,-,0.00,Snow,Light Snow,250,2012-01-12 23:12:00
2:53 PM,-9.9,-16.1,74,30.11,1.5,WSW,9.2,-,0.01,Snow,Light Snow,240,2012-01-12 23:53:00
3:11 PM,-9.4,-16.6,71,30.07,6.0,West,8.1,-,0.00,Snow,Light Snow,260,2012-01-13 00:11:00
3:53 PM,-9.9,-18.0,68,30.13,10.0,WSW,13.8,-,0.00,Snow,Light Snow,250,2012-01-13 00:53:00
4:53 PM,-11.0,-18.9,68,30.16,4.0,WSW,8.1,16.1,0.00,Snow,Light Snow,240,2012-01-13 01:53:00
5:53 PM,-11.0,-18.0,71,30.19,3.0,West,9.2,-,0.00,Snow,Light Snow,270,2012-01-13 02:53:00
6:17 PM,-11.2,-18.4,70,30.14,2.0,West,8.1,-,0.01,Snow,Light Snow,260,2012-01-13 03:17:00
6:53 PM,-11.9,-18.9,71,30.22,2.0,WSW,8.1,-,0.02,Snow,Light Snow,250,2012-01-13 03:53:00
7:00 PM,-11.2,-18.4,70,30.17,1.5,WSW,6.9,-,0.00,Snow,Light Snow,240,2012-01-13 04:00:00
7:16 PM,-11.2,-18.4,70,30.17,2.0,West,8.1,-,0.00,Snow,Light Snow,260,2012-01-13 04:16:00
7:53 PM,-11.9,-18.9,71,30.25,1.8,WSW,6.9,-,0.01,Snow,Light Snow,250,2012-01-13 04:53:00
8:08 PM,-11.2,-18.4,70,30.19,2.0,WSW,4.6,-,0.00,Snow,Light Snow,250,2012-01-13 05:08:00
8:53 PM,-11.9,-20.0,67,30.27,3.0,West,11.5,-,0.01,Snow,Light Snow,260,2012-01-13 05:53:00
9:53 PM,-13.0,-20.0,71,30.29,3.0,WSW,8.1,-,0.00,Snow,Light Snow,250,2012-01-13 06:53:00
10:53 PM,-13.0,-20.9,68,30.32,3.0,West,11.5,-,0.01,Snow,Light Snow,260,2012-01-13 07:53:00
11:53 PM,-14.1,-20.9,71,30.36,2.5,WSW,6.9,-,0.00,Snow,Light Snow,250,2012-01-13 08:53:00